Terug naar catalogus

COSMOS 252 DEB

ActiefLEO
NORAD 3843·DEBRIS·🇷🇺 Russia

Gelanceerd Nov 1, 1968 vanaf Baikonur Cosmodrome

Loading…

Volgende Passages (komende 24 uur)

TLE

VersSource: Space-Track

Epoch: Sep 13, 2026, 22:06 UTC

1  3843U 68097BG  26256.92083708  .00000881  00000-0  94857-3 0  9999
2  3843  62.2604 235.6162 0689308 128.9147 237.5409 13.04633587678899

Volg COSMOS 252 DEB in realtime met AllMySat

Download on the App Store